Time,TemperatureF,DewpointF,PressureIn,WindDirection,WindDirectionDegrees,WindSpeedMPH,WindSpeedGustMPH,Humidity,HourlyPrecipIn,Conditions,Clouds,dailyrainin,SoftwareType,DateUTC
2013-01-10 00:00:00,33.1,28.0,30.49,WNW,283,0.0,-999.0,82,-99.99,,,0.00,weatherlink.com 1.10,2013-01-10 05:00:00,
2013-01-10 00:16:00,34.7,28.0,30.49,WNW,283,0.0,-999.0,77,-99.99,,,0.00,weatherlink.com 1.10,2013-01-10 05:16:00,
2013-01-10 01:01:00,32.3,28.0,30.49,WNW,283,0.0,-999.0,83,-99.99,,,0.00,weatherlink.com 1.10,2013-01-10 06:01:00,
2013-01-10 01:16:00,32.0,27.0,30.49,WNW,283,0.0,-999.0,82,-99.99,,,0.00,weatherlink.com 1.10,2013-01-10 06:16:00,
2013-01-10 01:31:00,32.2,27.0,30.48,WNW,283,3.0,-999.0,82,-99.99,,,0.00,weatherlink.com 1.10,2013-01-10 06:31:00,
2013-01-10 01:46:00,32.5,27.0,30.48,WNW,284,3.0,-999.0,81,-99.99,,,0.00,weatherlink.com 1.10,2013-01-10 06:46:00,
2013-01-10 02:01:00,33.7,27.0,30.47,NNW,344,1.0,-999.0,77,-99.99,,,0.00,weatherlink.com 1.10,2013-01-10 07:01:00,
2013-01-10 02:16:00,34.4,27.0,30.47,NNW,345,2.0,-999.0,75,-99.99,,,0.00,weatherlink.com 1.10,2013-01-10 07:16:00,
2013-01-10 02:31:00,34.5,27.0,30.48,NNW,345,0.0,-999.0,74,-99.99,,,0.00,weatherlink.com 1.10,2013-01-10 07:31:00,
2013-01-10 02:46:00,32.5,26.0,30.47,NNW,345,0.0,-999.0,78,-99.99,,,0.00,weatherlink.com 1.10,2013-01-10 07:46:00,
2013-01-10 03:01:00,30.8,27.0,30.48,NNW,345,0.0,-999.0,85,-99.99,,,0.00,weatherlink.com 1.10,2013-01-10 08:01:00,
2013-01-10 03:16:00,30.9,28.0,30.49,NNW,344,0.0,-999.0,89,-99.99,,,0.00,weatherlink.com 1.10,2013-01-10 08:16:00,
2013-01-10 03:31:00,30.4,27.0,30.49,NNW,345,0.0,-999.0,88,-99.99,,,0.00,weatherlink.com 1.10,2013-01-10 08:31:00,
2013-01-10 03:46:00,30.3,27.0,30.49,NNW,344,0.0,-999.0,88,-99.99,,,0.00,weatherlink.com 1.10,2013-01-10 08:46:00,
2013-01-10 04:01:00,29.9,27.0,30.48,NNW,345,0.0,-999.0,88,-99.99,,,0.00,weatherlink.com 1.10,2013-01-10 09:01:00,
2013-01-10 04:17:00,30.4,27.0,30.48,NNW,345,0.0,-999.0,87,-99.99,,,0.00,weatherlink.com 1.10,2013-01-10 09:17:00,
2013-01-10 04:32:00,30.6,27.0,30.48,NNW,345,0.0,-999.0,86,-99.99,,,0.00,weatherlink.com 1.10,2013-01-10 09:32:00,
2013-01-10 04:47:00,30.0,27.0,30.47,NNW,345,0.0,-999.0,87,-99.99,,,0.00,weatherlink.com 1.10,2013-01-10 09:47:00,
2013-01-10 05:02:00,29.6,27.0,30.47,NNW,345,0.0,-999.0,88,-99.99,,,0.00,weatherlink.com 1.10,2013-01-10 10:02:00,
2013-01-10 05:17:00,29.6,27.0,30.47,NNW,345,0.0,-999.0,89,-99.99,,,0.00,weatherlink.com 1.10,2013-01-10 10:17:00,
2013-01-10 05:32:00,29.7,27.0,30.46,NNW,345,2.0,-999.0,89,-99.99,,,0.00,weatherlink.com 1.10,2013-01-10 10:32:00,
2013-01-10 05:47:00,30.7,27.0,30.46,NNW,345,0.0,-999.0,85,-99.99,,,0.00,weatherlink.com 1.10,2013-01-10 10:47:00,
2013-01-10 06:02:00,31.3,27.0,30.46,NNW,345,1.0,-999.0,83,-99.99,,,0.00,weatherlink.com 1.10,2013-01-10 11:02:00,
2013-01-10 06:17:00,31.7,27.0,30.46,NNW,345,1.0,-999.0,82,-99.99,,,0.00,weatherlink.com 1.10,2013-01-10 11:17:00,
2013-01-10 06:32:00,31.8,27.0,30.45,NNW,345,1.0,-999.0,81,-99.99,,,0.00,weatherlink.com 1.10,2013-01-10 11:32:00,
2013-01-10 06:47:00,31.7,27.0,30.46,NNW,345,2.0,-999.0,82,-99.99,,,0.00,weatherlink.com 1.10,2013-01-10 11:47:00,
2013-01-10 07:02:00,31.3,27.0,30.46,NNW,345,1.0,-999.0,83,-99.99,,,0.00,weatherlink.com 1.10,2013-01-10 12:02:00,
2013-01-10 07:17:00,31.1,27.0,30.45,NNW,345,2.0,-999.0,84,-99.99,,,0.00,weatherlink.com 1.10,2013-01-10 12:17:00,
2013-01-10 07:32:00,31.1,27.0,30.45,NNW,345,1.0,-999.0,85,-99.99,,,0.00,weatherlink.com 1.10,2013-01-10 12:32:00,
2013-01-10 07:47:00,31.2,27.0,30.44,North,355,4.0,-999.0,85,-99.99,,,0.00,weatherlink.com 1.10,2013-01-10 12:47:00,
2013-01-10 08:02:00,32.5,27.0,30.45,East,86,4.0,-999.0,81,-99.99,,,0.00,weatherlink.com 1.10,2013-01-10 13:02:00,
2013-01-10 08:17:00,32.9,28.0,30.44,East,86,2.0,-999.0,82,-99.99,,,0.00,weatherlink.com 1.10,2013-01-10 13:17:00,
2013-01-10 08:32:00,33.2,28.0,30.44,East,85,4.0,-999.0,81,-99.99,,,0.00,weatherlink.com 1.10,2013-01-10 13:32:00,
2013-01-10 08:47:00,33.8,29.0,30.44,East,93,6.0,-999.0,81,-99.99,,,0.00,weatherlink.com 1.10,2013-01-10 13:47:00,
2013-01-10 09:02:00,34.1,29.0,30.43,East,88,3.0,-999.0,81,-99.99,,,0.00,weatherlink.com 1.10,2013-01-10 14:02:00,
2013-01-10 09:17:00,34.6,29.0,30.43,East,91,5.0,-999.0,81,-99.99,,,0.00,weatherlink.com 1.10,2013-01-10 14:17:00,
2013-01-10 09:32:00,34.8,30.0,30.42,East,88,5.0,-999.0,82,-99.99,,,0.00,weatherlink.com 1.10,2013-01-10 14:32:00,
2013-01-10 09:47:00,34.9,30.0,30.42,East,82,4.0,-999.0,82,-99.99,,,0.00,weatherlink.com 1.10,2013-01-10 14:47:00,
2013-01-10 10:02:00,35.1,30.0,30.41,East,96,5.0,-999.0,83,-99.99,,,0.00,weatherlink.com 1.10,2013-01-10 15:02:00,
2013-01-10 10:17:00,35.7,31.0,30.41,East,90,5.0,-999.0,82,-99.99,,,0.00,weatherlink.com 1.10,2013-01-10 15:17:00,
2013-01-10 10:32:00,36.2,31.0,30.41,East,80,2.0,-999.0,82,-99.99,,,0.00,weatherlink.com 1.10,2013-01-10 15:32:00,
2013-01-10 10:47:00,36.6,31.0,30.40,East,82,5.0,-999.0,81,-99.99,,,0.00,weatherlink.com 1.10,2013-01-10 15:47:00,
2013-01-10 11:02:00,36.9,32.0,30.39,ESE,102,8.0,-999.0,81,-99.99,,,0.00,weatherlink.com 1.10,2013-01-10 16:02:00,
2013-01-10 11:17:00,37.2,32.0,30.39,East,88,5.0,-999.0,82,-99.99,,,0.00,weatherlink.com 1.10,2013-01-10 16:17:00,
2013-01-10 11:32:00,37.6,33.0,30.39,East,92,7.0,-999.0,82,-99.99,,,0.00,weatherlink.com 1.10,2013-01-10 16:32:00,
2013-01-10 11:47:00,38.4,32.0,30.37,ENE,74,10.0,-999.0,79,-99.99,,,0.00,weatherlink.com 1.10,2013-01-10 16:47:00,
2013-01-10 12:02:00,38.3,33.0,30.36,East,87,4.0,-999.0,80,-99.99,,,0.00,weatherlink.com 1.10,2013-01-10 17:02:00,
2013-01-10 12:17:00,38.7,33.0,30.35,ESE,104,7.0,-999.0,79,-99.99,,,0.00,weatherlink.com 1.10,2013-01-10 17:17:00,
2013-01-10 12:31:00,39.3,33.0,30.33,East,96,6.0,-999.0,77,-99.99,,,0.00,weatherlink.com 1.10,2013-01-10 17:31:00,
2013-01-10 12:47:00,39.7,32.0,30.32,East,101,6.0,-999.0,75,-99.99,,,0.00,weatherlink.com 1.10,2013-01-10 17:47:00,
2013-01-10 13:02:00,39.6,32.0,30.32,East,98,5.0,-999.0,75,-99.99,,,0.00,weatherlink.com 1.10,2013-01-10 18:02:00,
2013-01-10 13:17:00,39.6,33.0,30.30,ESE,102,6.0,-999.0,76,-99.99,,,0.00,weatherlink.com 1.10,2013-01-10 18:17:00,
2013-01-10 13:32:00,39.7,33.0,30.29,East,95,7.0,-999.0,77,-99.99,,,0.00,weatherlink.com 1.10,2013-01-10 18:32:00,
2013-01-10 13:47:00,39.8,33.0,30.27,East,85,7.0,-999.0,77,-99.99,,,0.00,weatherlink.com 1.10,2013-01-10 18:47:00,
2013-01-10 14:02:00,39.9,33.0,30.26,East,87,7.0,-999.0,77,-99.99,,,0.00,weatherlink.com 1.10,2013-01-10 19:02:00,
2013-01-10 14:17:00,40.2,34.0,30.25,East,96,7.0,-999.0,77,-99.99,,,0.00,weatherlink.com 1.10,2013-01-10 19:17:00,
2013-01-10 14:32:00,40.2,34.0,30.24,East,98,6.0,-999.0,77,-99.99,,,0.00,weatherlink.com 1.10,2013-01-10 19:32:00,
2013-01-10 14:47:00,40.1,33.0,30.23,East,85,7.0,-999.0,77,-99.99,,,0.00,weatherlink.com 1.10,2013-01-10 19:47:00,
2013-01-10 15:17:00,39.8,34.0,30.23,East,92,4.0,-999.0,80,-99.99,,,0.00,weatherlink.com 1.10,2013-01-10 20:17:00,
2013-01-10 15:32:00,39.6,34.0,30.23,East,98,5.0,-999.0,81,-99.99,,,0.00,weatherlink.com 1.10,2013-01-10 20:32:00,
2013-01-10 15:47:00,39.7,35.0,30.21,East,92,6.0,-999.0,82,-99.99,,,0.00,weatherlink.com 1.10,2013-01-10 20:47:00,
2013-01-10 16:02:00,39.5,35.0,30.21,East,96,4.0,-999.0,84,-99.99,,,0.00,weatherlink.com 1.10,2013-01-10 21:02:00,
2013-01-10 16:17:00,39.7,35.0,30.20,East,80,4.0,-999.0,84,-99.99,,,0.00,weatherlink.com 1.10,2013-01-10 21:17:00,
2013-01-10 16:32:00,39.7,36.0,30.21,SE,144,5.0,-999.0,85,-99.99,,,0.01,weatherlink.com 1.10,2013-01-10 21:32:00,
2013-01-10 16:47:00,39.1,36.0,30.19,East,90,1.0,-999.0,89,-99.99,,,0.06,weatherlink.com 1.10,2013-01-10 21:47:00,
2013-01-10 17:02:00,38.7,36.0,30.19,ESE,109,4.0,-999.0,91,-99.99,,,0.11,weatherlink.com 1.10,2013-01-10 22:02:00,
2013-01-10 17:17:00,38.6,37.0,30.18,East,98,6.0,-999.0,93,-99.99,,,0.17,weatherlink.com 1.10,2013-01-10 22:17:00,
2013-01-10 17:32:00,38.6,37.0,30.17,East,88,7.0,-999.0,94,-99.99,,,0.20,weatherlink.com 1.10,2013-01-10 22:32:00,
2013-01-10 17:47:00,39.0,38.0,30.17,ESE,103,5.0,-999.0,95,-99.99,,,0.22,weatherlink.com 1.10,2013-01-10 22:47:00,
2013-01-10 18:02:00,39.5,39.0,30.16,East,97,5.0,-999.0,96,-99.99,,,0.25,weatherlink.com 1.10,2013-01-10 23:02:00,
2013-01-10 18:17:00,39.7,39.0,30.16,East,90,9.0,-999.0,96,-99.99,,,0.26,weatherlink.com 1.10,2013-01-10 23:17:00,
2013-01-10 18:32:00,39.6,39.0,30.14,East,101,8.0,-999.0,96,-99.99,,,0.29,weatherlink.com 1.10,2013-01-10 23:32:00,
2013-01-10 18:47:00,39.7,39.0,30.13,ESE,107,4.0,-999.0,96,-99.99,,,0.34,weatherlink.com 1.10,2013-01-10 23:47:00,
2013-01-10 19:02:00,39.9,39.0,30.12,ESE,109,4.0,-999.0,96,-99.99,,,0.38,weatherlink.com 1.10,2013-01-11 00:02:00,
2013-01-10 19:17:00,40.0,39.0,30.11,ESE,115,1.0,-999.0,96,-99.99,,,0.39,weatherlink.com 1.10,2013-01-11 00:17:00,
2013-01-10 19:32:00,40.1,39.0,30.11,SE,142,1.0,-999.0,96,-99.99,,,0.39,weatherlink.com 1.10,2013-01-11 00:32:00,
2013-01-10 19:48:00,40.2,39.0,30.10,ESE,107,2.0,-999.0,96,-99.99,,,0.39,weatherlink.com 1.10,2013-01-11 00:48:00,
2013-01-10 20:03:00,40.3,39.0,30.08,South,177,0.0,-999.0,96,-99.99,,,0.40,weatherlink.com 1.10,2013-01-11 01:03:00,
2013-01-10 20:18:00,40.4,39.0,30.08,SE,131,7.0,-999.0,96,-99.99,,,0.40,weatherlink.com 1.10,2013-01-11 01:18:00,
2013-01-10 20:33:00,40.6,40.0,30.07,SSE,149,5.0,-999.0,96,-99.99,,,0.40,weatherlink.com 1.10,2013-01-11 01:33:00,
2013-01-10 20:48:00,40.8,40.0,30.06,East,86,3.0,-999.0,96,-99.99,,,0.43,weatherlink.com 1.10,2013-01-11 01:48:00,
2013-01-10 21:03:00,41.0,40.0,30.05,East,101,4.0,-999.0,97,-99.99,,,0.45,weatherlink.com 1.10,2013-01-11 02:03:00,
2013-01-10 21:18:00,41.3,41.0,30.04,SSE,150,2.0,-999.0,97,-99.99,,,0.45,weatherlink.com 1.10,2013-01-11 02:18:00,
2013-01-10 21:33:00,41.4,41.0,30.03,SE,136,6.0,-999.0,97,-99.99,,,0.45,weatherlink.com 1.10,2013-01-11 02:33:00,
2013-01-10 21:48:00,41.7,41.0,30.03,ESE,116,5.0,-999.0,97,-99.99,,,0.45,weatherlink.com 1.10,2013-01-11 02:48:00,
2013-01-10 22:03:00,41.8,41.0,30.03,SE,145,7.0,-999.0,97,-99.99,,,0.45,weatherlink.com 1.10,2013-01-11 03:03:00,
2013-01-10 22:18:00,41.9,41.0,30.02,SE,144,5.0,-999.0,97,-99.99,,,0.45,weatherlink.com 1.10,2013-01-11 03:18:00,
2013-01-10 22:33:00,42.3,42.0,30.01,SSE,148,5.0,-999.0,97,-99.99,,,0.45,weatherlink.com 1.10,2013-01-11 03:33:00,
2013-01-10 22:48:00,43.1,42.0,30.00,ESE,117,8.0,-999.0,97,-99.99,,,0.45,weatherlink.com 1.10,2013-01-11 03:48:00,
2013-01-10 23:03:00,43.8,43.0,30.00,SE,144,13.0,-999.0,97,-99.99,,,0.46,weatherlink.com 1.10,2013-01-11 04:03:00,
2013-01-10 23:18:00,44.6,44.0,29.99,SE,132,11.0,-999.0,97,-99.99,,,0.46,weatherlink.com 1.10,2013-01-11 04:18:00,
2013-01-10 23:33:00,44.9,44.0,29.98,SE,146,9.0,-999.0,97,-99.99,,,0.46,weatherlink.com 1.10,2013-01-11 04:33:00,
2013-01-10 23:48:00,45.5,45.0,29.99,ESE,120,7.0,-999.0,97,-99.99,,,0.46,weatherlink.com 1.10,2013-01-11 04:48:00,